User: anonymous   Login
Location: G?julap?du
(16.5372°N, 81.0979°E)
Time: 07:13:13
(UTC+00:00)
Language:

Cosmos 2341 Rocket - Orbit

View from above orbital plane
View from above orbital plane
View from above satellite
View from above satellite

Ground track
Ground track

The orbit is defined by the following mean orbital elements,

1 24773U          26161.61085697 +.00000000 +00000-0 +26202-4 0 00000
2 24773  82.9209 101.5404 0024270 173.0921   4.4531 13.73977636    07
Epoch (UTC): 10 June 2026 14:39:38
Eccentricity: 0.0024270
inclination: 82.9209°
perigee height: 967 km
apogee height: 1003 km
right ascension of ascending node: 101.5404°
argument of perigee: 173.0921°
revolutions per day: 13.73977636
mean anomaly at epoch: 4.4531°

The dashed part of the orbit path shows where the satellite is in the earth's shadow,  

DLR